Point Salines Arpt, Grenada

7:09 AM AST on February 26, 2017 (GMT -0400)
Point Salines Arpt

Weather History for 78958 - July, 2013

Change the Weather History Date:

Tuesday, July 16, 2013

  Actual Average Record
Temperature  
Mean Temperature 82 °F -  
Max Temperature 87 °F 85 °F - ()
Min Temperature 76 °F 75 °F - ()
Cooling Degree Days 16    
Growing Degree Days 32 (Base 50)    
Moisture  
Dew Point 77 °F    
Average Humidity 85    
Maximum Humidity 100    
Minimum Humidity 73    
Precipitation  
Precipitation 0.28 in - - ()
Sea Level Pressure  
Sea Level Pressure 29.97 in    
Wind  
Wind Speed 13 mph ()    
Max Wind Speed 40 mph    
Max Gust Speed 31 mph    
Visibility 6.4 miles    
Events Fog , Rain    
T = Trace of Precipitation, MM = Missing Value Source: Averaged Metar Reports

Daily Weather History Graph

Daily Weather History Graph

Search for Another Location

Airport or City:

Trip Planner

Search our weather history database for the weather conditions in past years. The results will help you decide how hot, cold, wet, or windy it might be!

Date:

Astronomy

Jul. 16, 2013 Rise Set
Actual Time 5:50 AM AST 6:35 PM AST
Civil Twilight 5:27 AM AST 6:58 PM AST
Nautical Twilight 5:00 AM AST 7:25 PM AST
Astronomical Twilight 4:33 AM AST 7:52 PM AST
Moon 12:35 PM AST (7/16) No Moon Set
Length of Visible Light 13h 31m
Length of Day
12h 45m
First Quarter, 56% of the Moon is Illuminated
Jul 16
First Quarter
Jul 22
Full
Jul 29
Last Quarter
Aug 6
New
Aug 14
First Quarter

Hourly Weather History & Observations

Time (AST) Temp. Heat Index Dew Point Humidity Pressure Visibility Wind Dir Wind Speed Gust Speed Precip Events Conditions
12:00 AM 80.6 °F 86.2 °F 75.2 °F 84% 29.98 in 6.2 mi ESE 11.5 mph - N/A   Scattered Clouds
1:00 AM 80.6 °F 86.2 °F 75.2 °F 84% 29.98 in 6.2 mi East 9.2 mph - N/A   Mostly Cloudy
2:00 AM 81 °F - 75 °F 78% 29.95 in 11 mi East 10.4 mph - - Fog Light Fog
2:00 AM 80.6 °F 86.2 °F 75.2 °F 84% 29.95 in 6.2 mi East 10.4 mph - N/A   Mostly Cloudy
3:00 AM 80.6 °F 86.2 °F 75.2 °F 84% 29.92 in 6.2 mi East 9.2 mph - N/A   Mostly Cloudy
4:00 AM 80.6 °F 87.1 °F 77.0 °F 89% 29.95 in 6.2 mi East 9.2 mph - N/A   Mostly Cloudy
5:00 AM 81 °F - 76 °F 80% 29.95 in 10 mi East 24.6 mph - -   Dust Whirls
5:00 AM 80.6 °F 86.2 °F 75.2 °F 84% 29.95 in 6.2 mi East 12.7 mph - N/A Rain Light Rain Showers
6:00 AM 80.6 °F 87.1 °F 77.0 °F 89% 29.95 in 6.2 mi East 8.1 mph - N/A   Mostly Cloudy
6:35 AM 77.0 °F - 77.0 °F 100% 29.98 in 1.6 mi ESE 20.7 mph - N/A Rain Rain Showers
7:00 AM 77.0 °F - 77.0 °F 100% 29.98 in 5.6 mi East 11.5 mph - N/A Rain Light Rain Showers
8:00 AM 80 °F - 78 °F 93% 29.99 in 7 mi East 24.6 mph - -   Mostly Cloudy
8:00 AM 80.6 °F 88.1 °F 78.8 °F 94% 29.98 in 6.2 mi East 12.7 mph - N/A   Mostly Cloudy
9:00 AM 84.2 °F 94.1 °F 77.0 °F 79% 30.01 in 6.2 mi ESE 16.1 mph - N/A   Scattered Clouds
10:00 AM 86.0 °F 99.3 °F 78.8 °F 79% 30.01 in 6.2 mi ESE 17.3 mph - N/A   Scattered Clouds
11:00 AM 86 °F - 78 °F 73% 30.01 in 7 mi SE 33.6 mph - -   Partly Cloudy
11:00 AM 86.0 °F 99.3 °F 78.8 °F 79% 30.01 in 6.2 mi SE 17.3 mph - N/A   Scattered Clouds
12:00 PM 86.0 °F 99.3 °F 78.8 °F 79% 29.98 in 6.2 mi SE 18.4 mph 31.1 mph N/A   Scattered Clouds
1:00 PM 80.6 °F 87.1 °F 77.0 °F 89% 29.98 in 6.2 mi ESE 13.8 mph - N/A Rain Light Rain Showers
2:00 PM 86 °F - 79 °F 74% 29.97 in 9 mi ESE 40.3 mph - -   Widespread Dust
2:00 PM 86.0 °F 99.3 °F 78.8 °F 79% 29.95 in 6.2 mi ESE 20.7 mph - N/A   Scattered Clouds
3:00 PM 87.8 °F 102.5 °F 78.8 °F 75% 29.95 in 6.2 mi ESE 16.1 mph - N/A   Mostly Cloudy
4:00 PM 86.0 °F 99.3 °F 78.8 °F 79% 29.92 in 6.2 mi East 20.7 mph - N/A   Mostly Cloudy
5:00 PM 85 °F - 78 °F 75% 29.93 in 9 mi ENE 35.8 mph - -   Widespread Dust
5:00 PM 86.0 °F 99.3 °F 78.8 °F 79% 29.92 in 6.2 mi ENE 18.4 mph - N/A   Scattered Clouds
6:00 PM 84.2 °F 96.1 °F 78.8 °F 84% 29.92 in 6.2 mi East 9.2 mph - N/A   Scattered Clouds
7:00 PM 78.8 °F - 77.0 °F 94% 29.95 in 3.7 mi East 11.5 mph - N/A Rain Rain Showers
8:00 PM 79 °F - 78 °F 94% 29.98 in 6 mi East 15.7 mph - - Rain Light Rain Showers
8:00 PM 78.8 °F - 77.0 °F 94% 29.98 in 6.2 mi ENE 8.1 mph - N/A   Scattered Clouds
9:00 PM 80.6 °F 87.1 °F 77.0 °F 89% 29.98 in 6.2 mi East 11.5 mph - N/A   Mostly Cloudy
10:00 PM 80.6 °F 87.1 °F 77.0 °F 89% 29.98 in 6.2 mi East 10.4 mph - N/A   Mostly Cloudy
11:00 PM 79 °F - 77 °F 90% 30.00 in 6 mi East 9.2 mph - -   Widespread Dust
11:00 PM 78.8 °F - 77.0 °F 94% 29.98 in 6.2 mi East 9.2 mph - N/A   Mostly Cloudy